^^
Meteo Knjazevac Station Historical Data
Daily Summary for March 1, 2021 Units:  English    Metric   Both
Daily Weekly Monthly Yearly Custom
  High: Low: Average:
Temperature: 52.7 °F 51.8 °F 52.3 °F
Dew Point: 50.3 °F 48.9 °F 49.6 °F
Humidity: 94% 88% 91%
Wind Speed: 7mph 0mph 2.3mph
Wind Gust: 13mph - -
Wind- - South
Pressure: 30.03 in 30.00 in -
Precipitation: 0.00 in    
Historical Graphs
 
 
Tabular Data for March 1, 2021
Time Temperature Dew Point Pressure Wind Wind Speed Wind Gust Humidity Rainfall Rate (Hourly) solar Conditions
00:00 52.7 °F 49.2 °F 30.03 in ESE 3 mph 6 mph 88% 0.00 in 0 W/m2
00:10 52.5 °F 49.1 °F 30.03 in ESE 3 mph 6 mph 88% 0.00 in 0 W/m2
00:20 52.5 °F 49 °F 30.03 in ESE 2 mph 7 mph 88% 0.00 in 0 W/m2
00:30 52.3 °F 49.2 °F 30.02 in ENE 1 mph 3 mph 89% 0.00 in 0 W/m2
00:40 52.3 °F 49.5 °F 30.02 in Calm   3 mph 90% 0.00 in 0 W/m2
00:50 52.2 °F 49.6 °F 30.02 in SE 2 mph 3 mph 91% 0.00 in 0 W/m2
01:00 52.2 °F 49.6 °F 30.02 in NE 1 mph 3 mph 91% 0.00 in 0 W/m2
01:10 52.3 °F 49.8 °F 30.02 in NNE 2 mph 2 mph 91% 0.00 in 0 W/m2
01:20 52.3 °F 49.8 °F 30.01 in NNE 2 mph 3 mph 91% 0.00 in 0 W/m2
01:30 52.2 °F 49.6 °F 30.01 in ENE 2 mph 4 mph 91% 0.00 in 0 W/m2
01:40 52.2 °F 49.6 °F 30.01 in Calm   2 mph 91% 0.00 in 0 W/m2
01:50 52 °F 49.4 °F 30.01 in Calm   2 mph 91% 0.00 in 0 W/m2
02:00 52 °F 49.7 °F 30.01 in Calm   2 mph 92% 0.00 in 0 W/m2
02:10 51.8 °F 49.8 °F 30.01 in North 1 mph 3 mph 93% 0.00 in 0 W/m2
02:20 51.8 °F 49.8 °F 30.01 in NNE 2 mph 3 mph 93% 0.00 in 0 W/m2
02:30 51.8 °F 49.8 °F 30.01 in NE 2 mph 4 mph 93% 0.00 in 0 W/m2
02:40 51.8 °F 49.8 °F 30.01 in Calm   4 mph 93% 0.00 in 0 W/m2
02:50 52 °F 50 °F 30.01 in Calm   3 mph 93% 0.00 in 0 W/m2
03:00 52 °F 50.3 °F 30.01 in Calm   2 mph 94% 0.00 in 0 W/m2
03:10 52 °F 50.3 °F 30.01 in SE 2 mph 5 mph 94% 0.00 in 0 W/m2
03:20 52 °F 50.3 °F 30.01 in Calm   7 mph 94% 0.00 in 0 W/m2
03:30 52 °F 50.3 °F 30.01 in WSW 2 mph 4 mph 94% 0.00 in 0 W/m2
03:40 52.2 °F 50.2 °F 30.01 in SW 1 mph 3 mph 93% 0.00 in 0 W/m2
03:50 52.2 °F 50.2 °F 30.00 in West 1 mph 5 mph 93% 0.00 in 0 W/m2
04:00 52.3 °F 49.8 °F 30.00 in West 2 mph 7 mph 91% 0.00 in 0 W/m2
04:10 52.3 °F 49.8 °F 30.00 in West 2 mph 6 mph 91% 0.00 in 0 W/m2
04:20 52.5 °F 49.7 °F 30.01 in WSW 2 mph 8 mph 90% 0.00 in 0 W/m2
04:30 52.7 °F 49.8 °F 30.00 in West 5 mph 8 mph 90% 0.00 in 0 W/m2
04:40 52.7 °F 49.5 °F 30.00 in West 3 mph 8 mph 89% 0.00 in 0 W/m2
04:50 52.6 °F 49.4 °F 30.00 in West 2 mph 6 mph 89% 0.00 in 0 W/m2
05:00 52.7 °F 49.5 °F 30.00 in WNW 2 mph 7 mph 89% 0.00 in 1 W/m2
05:10 52.7 °F 49.5 °F 30.01 in West 2 mph 5 mph 89% 0.00 in 2 W/m2
05:20 52.5 °F 49.1 °F 30.00 in WSW 3 mph 5 mph 88% 0.00 in 4 W/m2
05:30 52.5 °F 49.1 °F 30.01 in West 5 mph 7 mph 88% 0.00 in 6 W/m2
05:40 52.4 °F 49 °F 30.01 in West 7 mph 12 mph 88% 0.00 in 11 W/m2
05:50 52.3 °F 49.2 °F 30.01 in West 7 mph 13 mph 89% 0.00 in 15 W/m2
06:00 52.3 °F 48.9 °F 30.01 in West 5 mph 13 mph 88% 0.00 in 15 W/m2
06:10 52.3 °F 48.9 °F 30.01 in WSW 5 mph 10 mph 88% 0.00 in 20 W/m2
06:20 52.3 °F 49.2 °F 30.00 in West 6 mph 13 mph 89% 0.00 in 28 W/m2
06:30 52.3 °F 49.2 °F 30.00 in WSW 5 mph 12 mph 89% 0.00 in 42 W/m2
Knjazevac, Serbia
Compliments of Weather Underground - 2 mb